Date,TemperatureHighF,TemperatureAvgF,TemperatureLowF,DewpointHighF,DewpointAvgF,DewpointLowF,HumidityHigh,HumidityAvg,HumidityLow,PressureMaxIn,PressureMinIn,WindSpeedMaxMPH,WindSpeedAvgMPH,GustSpeedMaxMPH,PrecipitationSumIn
2013-4-1,51.4,46.2,38.4,47.0,42.9,23.5,97,89,54,29.73,29.53,34,12,36,0.25
2013-4-2,41.1,36.8,32.2,25.1,18.7,11.8,58,48,31,29.92,29.72,30,12,30,0.00
2013-4-3,45.4,38.1,32.3,26.0,18.0,13.3,58,45,28,30.06,29.88,20,13,31,0.00
2013-4-4,45.2,39.1,34.2,36.0,25.5,14.7,84,59,33,30.24,30.06,20,10,26,0.00
2013-4-5,44.8,42.5,40.4,43.2,39.7,32.2,96,90,62,30.05,29.60,22,6,28,0.06
2013-4-6,42.8,38.1,34.8,32.4,21.1,10.2,72,52,27,30.29,29.78,20,9,31,0.01
2013-4-7,47.4,41.9,33.2,43.5,35.8,28.0,91,79,63,30.29,30.02,25,8,31,0.00
2013-4-8,58.8,48.5,43.8,48.7,43.7,40.4,94,84,62,30.08,29.93,20,6,26,0.00
2013-4-9,57.6,48.2,43.2,50.9,45.6,41.5,97,91,77,30.07,29.81,17,6,21,0.02
2013-4-10,47.7,45.1,43.2,45.1,43.4,41.9,96,94,90,29.97,29.83,15,6,20,0.27
2013-4-11,47.1,44.3,42.9,45.2,41.8,38.8,97,91,80,30.09,29.75,12,5,20,0.06
2013-4-12,43.8,42.2,38.2,43.0,38.0,33.2,97,86,69,30.11,29.58,32,13,36,0.87
2013-4-13,45.1,41.5,39.8,42.9,39.2,37.3,97,92,76,29.90,29.59,19,7,30,0.05
2013-4-14,52.7,46.9,42.1,45.7,39.6,32.3,95,77,51,30.14,29.88,14,5,18,0.00
2013-4-15,47.1,44.1,41.0,42.5,39.5,33.1,95,84,67,30.38,30.14,11,6,13,0.00
2013-4-16,53.5,47.3,41.6,48.3,44.2,40.3,95,89,77,30.39,30.08,19,9,27,0.00
2013-4-17,53.5,50.0,45.2,50.3,44.4,37.6,97,82,55,30.28,30.05,17,7,25,0.02
2013-4-18,50.8,46.9,42.9,45.7,42.0,37.9,94,83,74,30.38,30.15,16,8,21,0.00
2013-4-19,63.6,54.8,47.7,60.7,53.3,46.1,97,94,87,30.14,29.75,28,10,32,0.03
2013-4-20,61.1,52.8,46.7,60.0,50.4,39.6,97,92,73,30.13,29.66,26,9,47,0.31
2013-4-21,47.7,42.5,39.1,39.3,29.6,25.6,73,60,54,30.61,30.14,17,7,25,0.00
2013-4-22,47.9,43.3,40.6,41.4,35.6,31.2,84,74,62,30.68,30.51,22,11,24,0.00
2013-4-23,44.3,43.6,41.7,43.4,42.0,37.2,97,94,83,30.50,29.91,19,11,29,1.05
2013-4-24,54.4,47.6,43.6,49.7,45.7,42.8,97,93,81,29.92,29.72,27,11,40,0.10
2013-4-25,57.7,51.4,46.5,51.7,46.4,39.6,96,84,52,30.20,29.87,16,6,22,0.02
2013-4-26,50.2,47.0,42.5,45.5,43.2,40.9,95,87,76,30.37,30.20,11,5,15,0.00
2013-4-27,57.1,47.8,38.9,45.9,39.8,33.8,97,76,46,30.38,30.29,9,3,11,0.01
2013-4-28,60.0,51.5,42.5,48.6,44.2,36.9,93,77,55,30.32,30.23,9,3,12,0.00
2013-4-29,59.8,51.2,44.3,48.8,44.8,39.3,95,80,52,30.26,30.21,11,4,13,0.00
2013-4-30,55.1,49.4,42.4,45.0,39.5,26.9,92,71,36,30.32,30.21,11,3,13,0.00